Mackinac Island, MI

12:51 AM EDT on October 21, 2017 (GMT -0400)
Mackinac Island

Weather History for KMCD - October, 2014

Change the Weather History Date:

Saturday, October 4, 2014

  Actual Average Record
Temperature  
Mean Temperature 44 °F -  
Max Temperature 50 °F 56 °F 80 °F (2005)
Min Temperature 39 °F 43 °F 28 °F (1980)
Degree Days  
Heating Degree Days 20    
Moisture  
Dew Point 43 °F    
Average Humidity 94    
Maximum Humidity 99    
Minimum Humidity 87    
Precipitation  
Precipitation 0.00 in - - ()
Sea Level Pressure  
Sea Level Pressure 29.46 in    
Wind  
Wind Speed 8 mph (WNW)    
Max Wind Speed 15 mph    
Max Gust Speed 22 mph    
Visibility 9 miles    
Events Rain    
Averages and records for this station are not official NWS values.
T = Trace of Precipitation, MM = Missing Value Source: NWS Daily Summary

Daily Weather History Graph

Daily Weather History Graph

Search for Another Location

Airport or City:

Trip Planner

Search our weather history database for the weather conditions in past years. The results will help you decide how hot, cold, wet, or windy it might be!

Date:

Astronomy

Oct. 04, 2014 Rise Set
Actual Time 7:40 AM EDT 7:12 PM EDT
Civil Twilight 7:11 AM EDT 7:42 PM EDT
Nautical Twilight 6:36 AM EDT 8:17 PM EDT
Astronomical Twilight 6:01 AM EDT 8:51 PM EDT
Moon 5:00 PM EDT (10/4) 2:54 AM EDT (10/4)
Length of Visible Light 12h 31m
Length of Day
11h 32m
Waxing Gibbous, 81% of the Moon is Illuminated
Oct 4
Waxing Gibbous
Oct 8
Full
Oct 15
Last Quarter
Oct 23
New
Oct 30
First Quarter

Hourly Weather History & Observations

Time (EDT) Temp. Windchill Dew Point Humidity Pressure Visibility Wind Dir Wind Speed Gust Speed Precip Events Conditions
12:17 AM 50.4 °F - 48.4 °F 93% 29.46 in 5.0 mi SSW 8.1 mph - N/A   Overcast
12:38 AM 49.8 °F - 48.6 °F 95% 29.46 in 4.0 mi SW 6.9 mph 17.3 mph N/A   Overcast
12:57 AM 49.6 °F - 48.7 °F 97% 29.45 in 7.0 mi SW 9.2 mph - N/A   Overcast
1:17 AM 49.8 °F - 48.6 °F 95% 29.45 in 10.0 mi West 8.1 mph - N/A Rain Light Rain
1:38 AM 49.6 °F - 48.6 °F 96% 29.45 in 10.0 mi West 5.8 mph - N/A Rain Light Rain
1:57 AM 49.1 °F - 47.5 °F 94% 29.45 in 10.0 mi West 8.1 mph - N/A Rain Light Rain
2:17 AM 48.2 °F - 46.6 °F 94% 29.45 in 10.0 mi WNW 8.1 mph - N/A Rain Light Rain
2:38 AM 48.2 °F - 46.9 °F 95% 29.44 in 10.0 mi WNW 9.2 mph - N/A Rain Light Rain
2:57 AM 47.8 °F - 46.8 °F 96% 29.44 in 10.0 mi WNW 8.1 mph - N/A Rain Light Rain
3:17 AM 47.7 °F - 46.6 °F 96% 29.43 in 10.0 mi WNW 5.8 mph - N/A Rain Light Rain
3:38 AM 47.5 °F - 46.8 °F 97% 29.43 in 10.0 mi WNW 4.6 mph - N/A   Overcast
3:57 AM 47.3 °F - 46.6 °F 97% 29.43 in 10.0 mi West 4.6 mph - N/A Rain Light Rain
4:18 AM 47.3 °F - 46.4 °F 97% 29.43 in 10.0 mi West 5.8 mph - N/A   Overcast
4:37 AM 46.8 °F - 46.0 °F 97% 29.43 in 10.0 mi West 5.8 mph - N/A Rain Light Rain
4:57 AM 46.4 °F 42.9 °F 45.9 °F 98% 29.43 in 10.0 mi West 6.9 mph - N/A Rain Light Rain
5:18 AM 46.2 °F 42.2 °F 45.5 °F 97% 29.43 in 4.0 mi West 8.1 mph - N/A Rain Light Rain
5:37 AM 45.9 °F 40.8 °F 45.5 °F 99% 29.43 in 3.0 mi West 10.4 mph 17.3 mph N/A Rain Light Rain
5:57 AM 46.0 °F 40.6 °F 45.5 °F 98% 29.43 in 10.0 mi West 11.5 mph 19.6 mph N/A Rain Light Rain
6:18 AM 45.7 °F 39.5 °F 44.1 °F 94% 29.43 in 10.0 mi West 13.8 mph 21.9 mph N/A Rain Light Rain
6:37 AM 45.5 °F 39.6 °F 44.1 °F 95% 29.43 in 10.0 mi West 12.7 mph 21.9 mph N/A Rain Light Rain
6:57 AM 45.5 °F 38.9 °F 44.1 °F 95% 29.43 in 7.0 mi West 15.0 mph 20.7 mph N/A Rain Light Rain
7:18 AM 45.5 °F 38.9 °F 43.7 °F 93% 29.44 in 7.0 mi West 15.0 mph 21.9 mph N/A Rain Light Rain
7:37 AM 45.0 °F 38.5 °F 43.7 °F 95% 29.44 in 7.0 mi West 13.8 mph 19.6 mph N/A Rain Light Rain
7:58 AM 44.6 °F 40.2 °F 42.8 °F 93% 29.44 in 10.0 mi West 8.1 mph 16.1 mph N/A Rain Light Rain
8:17 AM 44.4 °F 40.0 °F 43.2 °F 95% 29.44 in 7.0 mi West 8.1 mph - N/A Rain Light Rain
8:37 AM 44.6 °F 40.7 °F 43.7 °F 97% 29.44 in 7.0 mi West 6.9 mph - N/A   Overcast
8:58 AM 44.6 °F 40.7 °F 43.9 °F 97% 29.43 in 10.0 mi West 6.9 mph - N/A Rain Light Rain
9:17 AM 44.8 °F 40.4 °F 43.3 °F 95% 29.43 in 7.0 mi West 8.1 mph - N/A Rain Light Rain
9:37 AM 44.6 °F 40.2 °F 42.8 °F 93% 29.43 in 10.0 mi West 8.1 mph - N/A Rain Light Rain
9:58 AM 44.8 °F 41.6 °F 43.9 °F 97% 29.43 in 10.0 mi West 5.8 mph - N/A Rain Light Rain
10:17 AM 44.6 °F 40.7 °F 43.3 °F 95% 29.42 in 10.0 mi WNW 6.9 mph - N/A Rain Light Rain
10:38 AM 44.8 °F 41.0 °F 44.2 °F 98% 29.43 in 10.0 mi NW 6.9 mph - N/A Rain Light Rain
10:58 AM 44.6 °F 40.7 °F 44.1 °F 98% 29.43 in 10.0 mi WNW 6.9 mph - N/A Rain Light Rain
11:17 AM 44.8 °F 43.3 °F 44.4 °F 99% 29.43 in 5.0 mi WNW 3.5 mph - N/A   Overcast
11:38 AM 45.0 °F 42.6 °F 44.6 °F 99% 29.44 in 5.0 mi NW 4.6 mph - N/A Rain Light Rain
11:58 AM 44.6 °F 43.1 °F 43.9 °F 97% 29.44 in 5.0 mi WNW 3.5 mph - N/A Rain Light Rain
12:17 PM 44.6 °F 42.2 °F 43.7 °F 97% 29.44 in 1.8 mi WSW 4.6 mph - N/A   Overcast
12:38 PM 44.2 °F 41.0 °F 43.2 °F 96% 29.44 in 1.8 mi SW 5.8 mph - N/A   Overcast
12:58 PM 44.8 °F - 43.5 °F 95% 29.44 in 3.0 mi Calm Calm - N/A   Overcast
1:17 PM 45.3 °F 42.3 °F 44.2 °F 96% 29.44 in 10.0 mi NNW 5.8 mph - N/A Rain Light Rain
1:38 PM 43.9 °F 39.3 °F 43.2 °F 97% 29.45 in 7.0 mi NNW 8.1 mph - N/A   Overcast
1:58 PM 43.9 °F 41.3 °F 43.0 °F 97% 29.45 in 7.0 mi NW 4.6 mph - N/A Rain Light Rain
2:17 PM 44.1 °F 41.5 °F 42.8 °F 95% 29.45 in 10.0 mi WNW 4.6 mph - N/A Rain Light Rain
2:38 PM 44.8 °F 41.0 °F 43.0 °F 93% 29.44 in 10.0 mi NW 6.9 mph - N/A Rain Light Rain
2:57 PM 44.1 °F 41.5 °F 41.9 °F 92% 29.45 in 7.0 mi NW 4.6 mph - N/A Rain Light Rain
3:17 PM 44.8 °F 41.0 °F 42.3 °F 91% 29.45 in 10.0 mi West 6.9 mph - N/A Rain Light Rain
3:38 PM 44.8 °F 40.4 °F 42.8 °F 93% 29.45 in 10.0 mi WNW 8.1 mph - N/A   Overcast
3:57 PM 43.9 °F 39.9 °F 41.4 °F 91% 29.46 in 10.0 mi WNW 6.9 mph - N/A   Overcast
4:18 PM 43.7 °F 39.1 °F 41.0 °F 90% 29.46 in 10.0 mi West 8.1 mph - N/A Rain Light Rain
4:37 PM 43.9 °F 39.9 °F 41.9 °F 93% 29.46 in 10.0 mi West 6.9 mph - N/A Rain Light Rain
4:58 PM 43.5 °F 39.4 °F 41.4 °F 92% 29.47 in 4.0 mi WNW 6.9 mph - N/A Rain Rain
5:18 PM 43.7 °F 39.7 °F 42.1 °F 94% 29.47 in 10.0 mi NW 6.9 mph - N/A Rain Light Rain
5:37 PM 43.0 °F 36.4 °F 41.0 °F 93% 29.48 in 10.0 mi NW 12.7 mph 20.7 mph N/A Rain Light Rain
5:58 PM 42.1 °F 35.7 °F 40.1 °F 93% 29.49 in 10.0 mi NW 11.5 mph 18.4 mph N/A Rain Light Rain
6:18 PM 41.5 °F 35.0 °F 39.6 °F 93% 29.49 in 10.0 mi NW 11.5 mph - N/A   Overcast
6:37 PM 41.9 °F 36.9 °F 39.7 °F 92% 29.50 in 10.0 mi WNW 8.1 mph - N/A   Overcast
6:57 PM 42.1 °F 37.7 °F 39.9 °F 92% 29.50 in 10.0 mi NW 6.9 mph - N/A   Overcast
7:16 PM 41.9 °F 36.9 °F 39.9 °F 93% 29.50 in 10.0 mi NW 8.1 mph - N/A   Overcast
7:38 PM 41.9 °F 36.9 °F 39.7 °F 92% 29.51 in 10.0 mi NW 8.1 mph - N/A   Overcast
7:57 PM 41.9 °F 35.9 °F 39.7 °F 92% 29.51 in 10.0 mi WNW 10.4 mph - N/A   Overcast
8:18 PM 41.5 °F 36.4 °F 39.2 °F 91% 29.52 in 10.0 mi NW 8.1 mph - N/A   Overcast
8:38 PM 41.4 °F 36.2 °F 39.2 °F 92% 29.52 in 10.0 mi WNW 8.1 mph - N/A   Overcast
8:57 PM 41.2 °F 36.0 °F 39.0 °F 92% 29.52 in 10.0 mi NW 8.1 mph 18.4 mph N/A   Overcast
9:18 PM 41.0 °F 35.2 °F 39.2 °F 93% 29.52 in 10.0 mi WNW 9.2 mph - N/A   Overcast
9:38 PM 40.6 °F 34.8 °F 37.8 °F 89% 29.52 in 10.0 mi WNW 9.2 mph - N/A   Overcast
9:58 PM 40.3 °F 33.4 °F 36.7 °F 87% 29.52 in 10.0 mi WNW 11.5 mph 18.4 mph N/A   Overcast
10:18 PM 40.1 °F 33.2 °F 37.0 °F 89% 29.52 in 10.0 mi WNW 11.5 mph 20.7 mph N/A   Overcast
10:38 PM 40.1 °F 34.1 °F 37.2 °F 89% 29.52 in 10.0 mi WNW 9.2 mph 19.6 mph N/A Rain Light Rain
10:58 PM 40.1 °F 36.1 °F 37.0 °F 89% 29.52 in 10.0 mi NW 5.8 mph 17.3 mph N/A Rain Light Rain
11:18 PM 40.1 °F 34.1 °F 37.4 °F 90% 29.52 in 10.0 mi WNW 9.2 mph 16.1 mph N/A Rain Light Rain
11:37 PM 39.4 °F 33.2 °F 37.4 °F 93% 29.51 in 10.0 mi NW 9.2 mph - N/A Rain Light Rain
11:57 PM 39.6 °F 34.0 °F 37.4 °F 92% 29.51 in 10.0 mi NW 8.1 mph - N/A   Overcast